Find Starlink 37094

NORAD ID: 68241 Int'l Des: 2026-054 Owner: SPXS Country: US Constellation: starlink operational
LEOCIRCULAR

現在のビュー

3D地球を読み込み中...

About Starlink 37094

Starlink 37094 (NORAD 68241) is a starlink constellation satellite (v2 mini) launched Mar 17, 2026 by SPXS of US. It operates in LEO, CIRCULAR orbit with a mass of 575.00 kg.

Starlink 37094について

説明を読み込み中...

次回通過

Passes for default location (London). Set your location on the main map for personalized predictions.

高度履歴

Loading altitude history...

軌道要素

1 68241U 26054K 26167.27675902 .00010038 00000-0 35052-3 0 9998
2 68241 53.1572 199.1464 0001327 68.7692 291.3451 15.30204010 14085
Epoch: Jun 16, 2026 • Age: 6 hours

現在のステータス

高度 482.3 km
速度 7.62 km/s
衛星直下点 -24.05°S, 82.04°E
打ち上げ日 Mar 17, 2026
運用期間 0.2 years
タイプ internet

技術仕様

分類 Payload
質量 575.00 kg
乾燥質量 530.00 kg
総質量 575.00 kg
長さ 0.30 m
直径 4.10 m
スパン 29.00 m
形状 Box + pan
製造者 SPXS
バスタイプ Starlink V2MO
フェーズステータス In Orbit
所有者/国 SPXS/US

Most Searched